Location: Hurstbourne Priors
(51.2000°N, 1.3667°W)
Time: 19:49:33
(UTC+00:00)

Transit 4A - Pass Details

Date: 19 April 2021
Orbit: 870 x 974 km, 66.8° (Epoch: 09 May)

Event Time Altitude Azimuth Distance (km) Brightness Sun altitude
Rises 04:20:40 0° 301° (WNW) 3,579 10.6 -6.7°
Reaches altitude 10° 04:24:08 10° 320° (NW) 2,615 10.1 -6.3°
Maximum altitude 04:28:10 18° 2° (N) 2,074 10.1 -5.7°
Drops below altitude 10° 04:32:08 10° 44° (NE) 2,569 11.6 -5.1°
Sets 04:35:30 0° 63° (ENE) 3,492 14.0 -4.6°
